Theta_e
346 345 349 343 346 346 344 345 349 348 347 352 355 352 348 344 344 344 344 344 343 343 343 344 345 345 346 345 345 345 348 349 351 353 348 348 350 349 348 351 352 355 351 346
344 344 341 342 343 344 339 343 348 346 347 350 352 352 349 345 344 344 345 345 345 344 343 345 345 345 344 345 344 346 347 346 349 352 350 353 352 350 350 351 353 354 353 353
343 344 341 343 343 340 340 341 343 347 346 347 348 354 353 348 344 342 343 343 345 344 344 345 346 346 346 347 348 348 348 350 350 350 353 352 348 348 351 348 350 350 352 351
343 341 339 340 343 339 340 340 340 342 347 354 348 357 351 352 349 345 343 343 343 345 343 343 346 346 347 349 350 351 351 351 352 348 353 355 352 353 352 351 352 355 350 351
341 343 342 343 339 339 340 339 342 347 345 349 349 351 347 343 350 350 345 344 343 345 346 345 345 344 345 346 350 351 351 351 353 354 350 353 350 346 350 354 357 355 351 352
338 339 343 339 338 337 338 340 343 344 348 352 351 346 352 349 348 352 348 345 344 345 345 347 345 345 344 346 347 348 349 350 350 352 348 349 354 353 352 353 352 356 349 351
337 339 339 338 338 338 342 344 353 351 354 350 345 349 351 349 350 352 350 348 346 345 344 345 347 346 346 346 346 348 349 351 351 345 348 345 347 353 347 351 354 354 351 355
338 340 339 338 338 338 342 341 349 351 350 349 351 349 346 344 346 345 348 348 348 347 346 345 343 344 345 346 346 348 351 351 346 343 343 345 344 346 349 346 346 353 352 354
334 338 338 338 338 337 339 343 340 341 342 345 350 350 346 345 346 346 350 349 349 348 349 346 345 344 344 345 345 346 349 349 344 344 345 346 346 346 354 352 352 348 353 355
333 340 338 338 339 337 335 336 337 339 343 348 350 347 355 351 349 347 351 347 345 348 348 342 347 348 346 346 346 346 347 350 353 356 354 347 343 343 347 351 351 352 350 352
335 338 338 336 338 338 335 334 335 335 336 346 349 347 350 352 350 349 348 349 349 349 348 348 348 348 348 348 346 346 346 348 350 355 355 352 344 343 344 341 341 341 346 354
333 338 339 337 337 335 336 334 334 335 336 349 349 354 350 351 351 350 349 350 349 350 349 349 349 349 349 348 346 346 346 347 350 352 355 355 354 347 345 344 342 340 340 341
332 336 338 338 336 334 332 332 333 334 335 347 351 354 350 350 351 352 353 354 356 355 356 353 352 352 351 351 352 353 348 349 351 352 354 355 357 358 356 358 354 353 347 342
333 337 338 340 341 340 337 334 334 334 340 344 347 351 352 354 355 354 353 354 356 360 360 360 361 361 361 360 358 355 355 353 352 355 356 357 357 359 359 358 358 358 357 355
334 338 339 337 337 337 337 335 334 336 340 342 343 347 348 354 351 347 348 350 350 350 352 358 360 361 361 361 362 358 356 358 357 356 356 358 357 358 358 357 358 357 357 359
335 338 340 338 336 336 336 334 335 336 337 343 341 345 345 339 346 347 347 345 345 347 348 351 355 358 360 361 360 361 361 362 358 359 359 358 358 358 356 357 356 356 358 356
334 337 341 339 339 340 334 334 336 335 343 344 347 346 340 345 348 347 345 346 347 348 349 350 352 351 353 355 358 360 361 362 362 361 361 363 362 359 359 356 357 356 356 355
335 337 339 340 343 345 340 339 341 339 344 344 346 340 335 343 348 346 345 347 348 347 345 345 346 347 348 350 351 351 357 357 357 358 358 359 359 359 360 360 359 357 358 353
335 335 339 340 339 337 338 339 341 345 344 340 341 339 339 344 346 346 347 348 348 347 344 343 343 344 347 348 350 348 348 356 357 355 354 354 354 352 352 350 348 349 349 349
335 336 337 337 340 339 339 338 341 341 344 338 342 346 345 344 349 350 348 348 348 345 343 343 345 346 345 346 346 346 347 349 351 346 342 340 344 351 353 352 352 348 348 347
338 337 338 337 336 337 339 338 336 338 347 338 336 343 340 347 348 348 348 348 346 345 343 342 343 343 342 343 346 346 347 348 348 348 345 345 342 346 340 342 347 348 347 346
339 338 337 337 341 339 339 338 341 347 344 340 335 341 345 348 348 349 349 348 346 344 341 343 344 344 343 344 347 349 346 346 349 352 342 335 338 350 348 336 341 343 343 346
339 336 337 337 345 341 339 342 341 346 346 344 339 346 349 350 349 349 348 347 345 344 343 343 345 343 346 346 347 350 337 346 347 349 347 347 348 337 342 344 343 344 344 345
337 342 345 342 344 341 340 339 339 340 345 346 347 348 347 350 351 350 348 346 346 345 343 342 344 345 347 348 349 352 343 341 351 349 347 347 344 339 339 342 340 342 342 342
344 340 341 342 344 342 339 340 341 341 342 346 347 347 347 349 350 348 347 346 345 344 344 344 344 346 349 350 350 351 353 350 351 350 346 344 346 340 342 342 341 342 341 336
341 343 338 340 344 342 340 339 341 340 339 339 341 343 344 345 345 345 343 342 345 347 346 346 346 349 349 349 348 350 353 354 352 350 348 346 343 342 342 343 344 343 343 342
Wind_Speed
19 10 4 21 25 21 12 13 9 10 9 23 22 20 15 20 22 24 23 21 18 15 12 15 11 12 13 12 13 11 16 14 11 5 2 4 6 6 8 9 6 2 7 7
10 15 24 25 29 37 2 6 8 12 9 14 12 15 15 16 18 22 22 23 23 19 20 15 14 15 16 14 17 10 11 10 9 8 6 7 3 3 9 9 5 1 3 1
11 11 21 24 29 4 3 2 5 8 7 4 7 7 14 12 15 17 21 21 23 20 20 19 18 19 19 20 18 15 13 13 11 12 10 9 10 11 9 9 8 8 2 2
7 12 18 26 13 8 2 6 7 5 11 6 17 2 6 7 12 14 18 21 20 23 22 20 21 18 20 23 20 19 14 13 13 10 10 7 7 7 11 16 16 12 4 4
14 21 21 18 3 10 7 14 7 25 19 5 5 6 9 11 14 14 19 21 21 24 29 27 24 20 19 22 20 20 18 15 14 15 11 12 9 8 6 9 1 13 8 9
20 24 32 12 7 6 7 7 28 13 9 5 15 9 6 6 17 20 23 24 21 21 26 28 21 19 18 21 21 24 22 19 13 17 13 14 12 9 8 10 10 8 13 10
18 16 15 11 10 12 22 19 7 7 5 4 15 5 8 22 20 21 22 26 27 22 16 17 22 26 19 20 16 24 24 19 12 12 15 11 17 15 16 15 11 10 6 8
12 15 17 14 14 9 12 15 7 8 6 14 18 4 7 7 11 0 16 29 16 15 21 18 16 16 17 14 11 12 18 13 9 11 12 13 12 16 16 15 17 8 6 18
12 9 10 8 11 15 7 6 17 12 20 8 4 14 7 7 8 4 26 24 15 17 19 6 10 14 14 14 14 14 18 12 12 15 16 17 16 15 14 11 14 13 10 17
9 6 11 13 15 13 12 10 6 9 3 6 10 16 9 10 6 7 20 24 38 39 15 8 19 21 19 16 14 14 16 14 15 17 17 16 17 16 18 18 19 12 12 17
7 5 7 7 19 21 13 12 12 14 4 4 8 5 13 9 9 11 12 14 16 13 29 22 20 12 13 11 14 17 19 20 19 17 21 17 15 15 17 19 16 15 17 18
11 9 5 23 29 22 12 10 12 10 4 12 11 7 14 13 13 14 15 13 11 8 8 7 6 7 8 9 15 16 22 20 22 20 20 21 18 17 18 18 17 16 17 20
9 12 4 10 14 8 7 12 10 15 7 14 6 8 11 13 14 16 15 12 9 8 4 3 3 2 6 7 9 5 14 14 18 20 19 20 20 21 20 19 18 19 19 20
4 13 10 6 13 19 12 4 7 13 7 12 8 12 10 12 13 16 17 14 12 11 9 6 6 3 0 4 8 11 7 10 13 13 15 19 20 20 20 19 23 21 23 23
6 8 7 3 12 18 18 8 4 7 5 4 12 11 4 12 13 15 17 16 15 14 13 10 7 6 4 3 0 5 9 7 7 15 15 12 19 17 20 21 21 24 23 23
14 4 7 4 10 18 19 13 7 9 5 19 14 9 16 32 21 18 16 14 15 14 13 10 8 7 7 6 5 4 5 7 12 8 10 15 18 21 24 19 26 24 18 25
14 9 5 3 6 18 13 12 7 9 19 27 15 7 7 14 12 19 18 15 15 14 12 10 8 8 8 7 6 5 5 4 5 7 8 8 8 9 10 18 19 19 23 22
13 13 6 8 12 4 7 3 8 9 22 20 26 30 33 35 21 20 19 17 15 14 11 11 10 10 8 7 7 6 7 4 4 5 5 6 8 10 11 12 15 14 19 20
13 11 4 8 8 6 14 4 2 4 12 25 26 30 39 37 26 22 21 19 16 14 12 11 10 9 8 7 8 7 6 7 7 5 4 3 1 3 3 3 5 6 9 11
10 14 7 7 10 7 7 12 10 2 3 14 24 28 33 30 13 11 23 20 17 14 12 11 10 14 8 7 8 7 8 5 6 6 5 4 4 4 1 2 3 5 6 7
8 8 12 7 7 10 9 6 6 7 4 8 30 22 53 12 12 29 23 19 16 13 12 9 9 9 8 8 7 8 7 7 6 4 4 4 3 6 5 5 5 6 7 9
6 5 9 9 12 9 9 4 5 7 21 24 41 24 51 23 25 23 19 18 16 13 8 8 10 9 8 6 5 4 5 5 5 4 3 4 5 6 5 5 5 5 7 7
4 6 8 11 5 8 7 7 4 10 13 26 48 44 21 20 19 17 15 15 12 10 7 8 11 10 6 5 4 3 4 4 4 2 3 3 1 2 5 10 12 11 11 10
8 6 3 1 10 6 9 6 4 3 6 5 8 17 14 20 21 17 15 13 11 12 9 8 10 10 6 4 5 3 2 2 4 2 1 2 3 6 7 6 4 5 4 3
4 7 3 1 9 7 2 1 4 3 2 9 8 8 10 15 17 13 13 12 13 15 12 9 6 3 5 4 3 2 3 2 3 2 1 1 3 5 5 8 12 11 11 10
6 3 6 2 11 6 7 3 5 4 3 3 5 7 10 9 7 8 9 8 12 13 11 9 6 4 3 2 3 4 5 5 4 4 5 5 3 8 2 7 11 12 12 10
Wind_Direction
258 63 323 254 224 227 187 192 168 118 181 152 164 184 162 182 187 175 176 183 186 195 188 177 192 166 166 173 195 199 179 194 184 210 185 200 234 256 272 266 283 245 6 51
231 101 236 261 249 246 240 84 153 129 190 179 143 145 159 180 194 183 189 188 183 184 184 193 184 178 181 180 189 209 190 197 193 202 227 253 299 268 264 283 220 168 292 331
263 161 243 250 285 97 70 152 197 178 178 40 135 147 155 184 190 192 193 200 188 179 182 181 197 188 185 182 182 193 199 209 217 208 214 258 243 244 242 264 237 237 178 206
144 164 263 271 267 64 313 300 198 183 66 360 357 327 321 188 200 195 202 200 197 178 181 182 190 195 191 183 181 195 215 206 219 211 204 226 242 262 265 255 242 215 175 234
252 192 217 245 128 117 215 256 78 93 81 41 340 60 278 302 274 197 206 202 200 183 179 185 190 187 198 188 190 194 204 216 201 236 232 226 250 233 261 263 345 218 254 198
260 78 262 268 337 255 305 325 58 89 103 189 189 180 268 225 223 194 196 202 206 193 179 180 185 189 208 196 192 199 205 212 219 216 241 223 219 248 234 256 254 257 221 194
264 234 264 255 269 252 102 62 28 17 209 157 130 168 202 219 230 195 190 198 191 191 195 185 188 189 179 179 206 199 196 198 223 228 225 235 217 220 235 231 240 273 294 241
218 241 228 236 237 267 80 114 123 220 232 145 156 77 89 90 101 166 209 176 195 182 191 192 199 194 184 172 167 169 187 199 232 217 220 227 225 223 238 234 231 249 260 263
238 248 295 284 282 241 141 112 215 211 246 82 46 360 83 62 61 101 95 123 128 265 283 152 196 194 191 187 195 194 195 210 222 220 222 222 225 220 229 234 250 232 237 269
267 327 311 298 312 288 285 309 256 234 304 116 126 175 218 110 78 102 117 133 149 188 152 156 222 204 193 191 195 206 202 205 215 209 238 231 226 221 216 220 225 230 217 256
196 4 273 299 276 267 222 238 248 266 259 131 153 100 111 120 112 109 114 139 169 151 172 191 219 203 191 185 202 201 204 207 212 211 226 234 214 217 218 227 231 225 216 218
161 243 220 213 237 242 249 249 267 268 220 73 109 108 113 134 119 99 101 112 114 103 105 140 175 208 220 230 206 213 206 205 208 217 215 234 236 226 226 224 229 231 226 221
230 199 129 278 238 221 265 256 252 281 299 40 83 129 123 116 119 115 114 118 121 121 123 141 153 147 201 240 246 239 207 194 207 209 219 229 241 237 231 243 251 243 243 236
334 81 90 330 289 309 292 245 267 273 64 83 87 128 123 125 125 119 114 116 115 106 97 83 56 74 7 211 218 224 191 227 205 206 222 222 227 235 238 242 247 253 256 260
241 78 3 230 278 302 279 305 176 259 84 106 164 125 203 135 133 130 126 128 123 112 103 102 95 82 64 68 21 232 222 205 224 234 215 232 229 231 239 241 245 245 245 259
238 122 154 266 251 262 262 233 274 316 299 105 160 64 14 332 135 137 133 127 120 115 110 111 112 103 91 86 85 84 177 188 193 217 224 234 228 225 230 231 241 240 240 244
247 111 39 285 242 282 233 256 248 238 103 133 135 155 353 294 189 150 148 145 134 122 113 107 99 96 98 94 99 99 101 126 162 187 194 196 225 241 247 245 247 250 246 255
277 120 117 203 74 320 345 32 353 6 136 125 137 145 171 223 180 163 156 151 140 131 125 131 123 120 109 102 94 83 90 101 132 168 174 197 215 220 235 243 247 250 255 266
286 288 28 327 186 240 200 140 25 46 89 134 150 168 189 211 155 154 155 161 145 134 129 124 121 121 111 100 95 92 93 120 119 107 101 73 25 356 354 326 289 291 291 292
272 289 291 288 329 304 61 289 354 201 175 338 50 7 236 152 164 157 159 149 140 135 128 127 142 128 106 124 104 98 102 90 104 116 124 127 112 98 137 247 294 308 311 331
225 265 283 253 251 292 129 66 325 273 203 161 72 95 269 178 206 151 149 140 141 132 129 123 119 109 114 97 103 107 107 109 109 84 58 53 53 45 17 17 3 338 327 322
212 234 249 264 284 254 40 1 35 94 161 158 112 199 243 124 128 137 143 141 132 129 135 137 135 127 119 115 117 119 110 97 95 92 84 74 84 97 309 353 0 4 359 345
275 248 234 245 84 86 68 104 50 57 120 174 166 189 181 127 128 135 138 136 139 140 133 104 127 121 117 140 134 212 131 144 101 99 79 67 66 8 35 28 14 13 345 353
235 324 13 150 119 95 61 47 49 198 146 184 149 132 143 149 154 150 144 160 164 162 143 137 98 118 134 131 137 228 159 142 137 188 136 39 26 32 64 57 349 358 324 353
355 170 260 132 112 92 92 62 109 97 57 44 85 133 155 148 146 144 166 179 178 150 138 138 146 150 164 163 172 198 238 234 187 239 239 310 251 1 343 341 339 339 357 351
173 167 211 307 134 134 123 157 161 133 111 78 57 59 55 59 93 127 111 135 128 141 139 133 146 173 201 225 244 238 227 247 204 250 288 254 232 296 296 326 323 326 318 323